This is the latest recevied weather packets stored in our database for station/object WB0RXX. If no packets are shown the sender has not sent any weather packets the latest 10 day(s).
| Time | Temp. | Humidity | Pressure | Rain* | Wind** | Luminosity | Snow |
|---|---|---|---|---|---|---|---|
| 1777881005 | 13.33° C | 45% | 998.2 hPa | 0 mm | - | - | - |
| 1777880404 | 13.33° C | 46% | 998.4 hPa | 0 mm | - | - | - |
| 1777879819 | 12.78° C | 46% | 998.7 hPa | 0 mm | - | - | - |
| 1777879204 | 13.33° C | 45% | 998.8 hPa | 0 mm | - | - | - |
| 1777878603 | 13.33° C | 43% | 999.1 hPa | 0 mm | - | - | - |
| 1777878004 | 13.33° C | 43% | 999.2 hPa | 0 mm | - | - | - |
| 1777877419 | 13.33° C | 43% | 999.4 hPa | 0 mm | - | - | - |
| 1777876805 | 13.33° C | 42% | 999.6 hPa | 0 mm | - | - | - |
| 1777876204 | 13.33° C | 41% | 1000 hPa | 0 mm | - | - | - |
| 1777875604 | 13.89° C | 41% | 1000.2 hPa | 0 mm | - | - | - |
| 1777875020 | 13.89° C | 40% | 1000.3 hPa | 0 mm | - | - | - |
| 1777874404 | 13.89° C | 39% | 1000.6 hPa | 0 mm | - | - | - |
| 1777873804 | 13.89° C | 41% | 1000.9 hPa | 0 mm | - | - | - |
| 1777873204 | 13.33° C | 41% | 1001.1 hPa | 0 mm | - | - | - |
| 1777872603 | 13.89° C | 41% | 1001.3 hPa | 0 mm | - | - | - |
| 1777872005 | 13.89° C | 41% | 1001.5 hPa | 0 mm | - | - | - |
| 1777871405 | 13.89° C | 41% | 1001.7 hPa | 0 mm | - | - | - |
| 1777870806 | 13.33° C | 41% | 1002 hPa | 0 mm | - | - | - |
| 1777870204 | 13.89° C | 41% | 1002.1 hPa | 0 mm | - | - | - |
| 1777869604 | 13.89° C | 40% | 1002.2 hPa | 0 mm | - | - | - |
| 1777869004 | 13.89° C | 41% | 1002.4 hPa | 0 mm | - | - | - |
| 1777868403 | 13.89° C | 41% | 1002.6 hPa | 0 mm | - | - | - |
| 1777867804 | 13.89° C | 41% | 1002.8 hPa | 0 mm | - | - | - |
| 1777867205 | 14.44° C | 40% | 1002.9 hPa | 0 mm | - | - | - |
| 1777866603 | 14.44° C | 40% | 1003.1 hPa | 0 mm | - | - | - |
* Rain latest hour (hover to see other rain measurements)
** Current wind speed in m/s (hover to see current wind gust speed)